Thayer, KS

1:35 AM CST on December 08, 2016 (GMT -0600)
Tri-City

Weather History for KPPF - February, 2014

Change the Weather History Date:

Saturday, February 22, 2014

  Actual Average Record
Temperature  
Mean Temperature 46 °F -  
Max Temperature 63 °F 52 °F 70 °F (1977)
Min Temperature 28 °F 30 °F 7 °F (1978)
Degree Days  
Heating Degree Days 20    
Moisture  
Dew Point 26 °F    
Average Humidity 48    
Maximum Humidity 75    
Minimum Humidity 28    
Precipitation  
Precipitation 0.00 in - - ()
Sea Level Pressure  
Sea Level Pressure 29.92 in    
Wind  
Wind Speed 4 mph (NNE)    
Max Wind Speed 12 mph    
Max Gust Speed 20 mph    
Visibility 10 miles    
Events      
Averages and records for this station are not official NWS values.
T = Trace of Precipitation, MM = Missing Value Source: NWS Daily Summary

Daily Weather History Graph

Daily Weather History Graph

Search for Another Location

Airport or City:

Trip Planner

Search our weather history database for the weather conditions in past years. The results will help you decide how hot, cold, wet, or windy it might be!

Date:

Astronomy

Feb. 22, 2014 Rise Set
Actual Time 7:02 AM CST 6:09 PM CST
Civil Twilight 6:36 AM CST 6:35 PM CST
Nautical Twilight 6:05 AM CST 7:05 PM CST
Astronomical Twilight 5:35 AM CST 7:36 PM CST
Moon 12:55 AM CST (2/22) 11:24 AM CST (2/22)
Length of Visible Light 11h 59m
Length of Day
11h 06m
Waning Gibbous, 50% of the Moon is Illuminated
Feb 22
Waning Gibbous
Mar 1
New
Mar 8
First Quarter
Mar 16
Full
Mar 23
Last Quarter

Hourly Weather History & Observations

Time (CST) Temp. Windchill Dew Point Humidity Pressure Visibility Wind Dir Wind Speed Gust Speed Precip Events Conditions
12:52 AM 35.1 °F - 19.0 °F 52% 29.96 in 10.0 mi Calm Calm - N/A   Clear
1:52 AM 30.0 °F - 21.0 °F 69% 29.96 in 10.0 mi Calm Calm - N/A   Clear
2:52 AM 30.9 °F 27.5 °F 19.9 °F 64% 29.94 in 10.0 mi East 3.5 mph - N/A   Clear
3:52 AM 28.0 °F - 21.0 °F 75% 29.93 in 10.0 mi Calm Calm - N/A   Clear
4:52 AM 30.0 °F - 21.0 °F 69% 29.93 in 10.0 mi Calm Calm - N/A   Clear
5:52 AM 37.9 °F 35.5 °F 21.9 °F 53% 29.93 in 10.0 mi SSE 3.5 mph - N/A   Clear
6:52 AM 39.0 °F 35.7 °F 23.0 °F 53% 29.92 in 10.0 mi SSE 4.6 mph - N/A   Clear
7:52 AM 41.0 °F 39.0 °F 24.1 °F 51% 29.93 in 10.0 mi South 3.5 mph - N/A   Clear
8:52 AM 46.9 °F - 26.1 °F 44% 29.93 in 10.0 mi South 6.9 mph - N/A   Clear
9:52 AM 50.0 °F - 28.0 °F 43% 29.93 in 10.0 mi South 9.2 mph - N/A   Clear
10:52 AM 54.0 °F - 28.9 °F 38% 29.93 in 10.0 mi SSW 8.1 mph - N/A   Clear
11:52 AM 57.0 °F - 28.9 °F 34% 29.92 in 10.0 mi SW 11.5 mph - N/A   Clear
12:52 PM 57.0 °F - 28.9 °F 34% 29.88 in 10.0 mi West 5.8 mph - N/A   Clear
1:52 PM 60.1 °F - 30.0 °F 32% 29.86 in 10.0 mi NW 10.4 mph - N/A   Clear
2:52 PM 63.0 °F - 28.9 °F 28% 29.85 in 10.0 mi WNW 8.1 mph - N/A   Clear
3:52 PM 63.0 °F - 28.9 °F 28% 29.85 in 10.0 mi NW 4.6 mph - N/A   Clear
4:52 PM 62.1 °F - 28.9 °F 29% 29.85 in 10.0 mi West 4.6 mph - N/A   Clear
5:52 PM 57.0 °F - 28.9 °F 34% 29.86 in 10.0 mi NNE 5.8 mph - N/A   Clear
6:52 PM 52.0 °F - 28.9 °F 41% 29.90 in 10.0 mi North 5.8 mph - N/A   Clear
7:52 PM 48.0 °F - 28.0 °F 46% 29.93 in 10.0 mi NE 5.8 mph - N/A   Clear
8:52 PM 46.0 °F 41.9 °F 27.0 °F 47% 29.96 in 10.0 mi NE 8.1 mph - N/A   Clear
9:52 PM 45.0 °F 40.6 °F 30.0 °F 56% 29.96 in 10.0 mi ENE 8.1 mph 19.6 mph N/A   Clear
10:52 PM 42.1 °F 36.6 °F 30.0 °F 62% 29.95 in 10.0 mi ENE 9.2 mph 16.1 mph N/A   Clear
11:52 PM 37.9 °F 33.5 °F 30.0 °F 73% 29.96 in 10.0 mi Variable 5.8 mph - N/A   Clear